Hibbing, MN

1:50 PM CDT on May 29, 2017 (GMT -0500)
Chisholm-hibbing

Weather History for KHIB - March, 2014

Change the Weather History Date:

Sunday, March 9, 2014

  Actual Average Record
Temperature  
Mean Temperature 34 °F -  
Max Temperature 48 °F 31 °F 54 °F (1977)
Min Temperature 19 °F 7 °F -22 °F (1982)
Degree Days  
Heating Degree Days 32    
Moisture  
Dew Point 21 °F    
Average Humidity 63    
Maximum Humidity 89    
Minimum Humidity 41    
Precipitation  
Precipitation 0.00 in - - ()
Sea Level Pressure  
Sea Level Pressure 29.71 in    
Wind  
Wind Speed 6 mph (SSW)    
Max Wind Speed 12 mph    
Max Gust Speed 17 mph    
Visibility 10 miles    
Events      
Averages and records for this station are not official NWS values.
T = Trace of Precipitation, MM = Missing Value Source: NWS Daily Summary

Daily Weather History Graph

Daily Weather History Graph

Search for Another Location

Airport or City:

Trip Planner

Search our weather history database for the weather conditions in past years. The results will help you decide how hot, cold, wet, or windy it might be!

Date:

Astronomy

Mar. 09, 2014 Rise Set
Actual Time 7:36 AM CDT 7:08 PM CDT
Civil Twilight 7:05 AM CDT 7:38 PM CDT
Nautical Twilight 6:30 AM CDT 8:14 PM CDT
Astronomical Twilight 5:54 AM CDT 8:50 PM CDT
Moon 12:44 PM CDT (3/9) 3:19 AM CDT (3/9)
Length of Visible Light 12h 33m
Length of Day
11h 32m
First Quarter, 61% of the Moon is Illuminated
Mar 9
First Quarter
Mar 16
Full
Mar 23
Last Quarter
Mar 30
New
Apr 7
First Quarter

Hourly Weather History & Observations

Time (CDT) Temp. Windchill Dew Point Humidity Pressure Visibility Wind Dir Wind Speed Gust Speed Precip Events Conditions
12:53 AM 19.9 °F 11.1 °F 8.1 °F 60% 30.03 in 10.0 mi SSW 6.9 mph - N/A   Overcast
1:53 AM 21.0 °F 13.4 °F 10.0 °F 63% 29.99 in 10.0 mi South 5.8 mph - N/A   Overcast
3:53 AM 19.9 °F 13.4 °F 12.0 °F 71% 29.94 in 10.0 mi Variable 4.6 mph - N/A   Partly Cloudy
4:53 AM 19.9 °F 11.1 °F 12.9 °F 74% 29.89 in 10.0 mi South 6.9 mph - N/A   Partly Cloudy
5:53 AM 21.0 °F 12.4 °F 12.9 °F 71% 29.85 in 10.0 mi South 6.9 mph - N/A   Mostly Cloudy
6:53 AM 21.0 °F 13.4 °F 14.0 °F 74% 29.82 in 10.0 mi Variable 5.8 mph - N/A   Mostly Cloudy
7:53 AM 21.0 °F 14.6 °F 14.0 °F 74% 29.79 in 10.0 mi South 4.6 mph - N/A   Clear
8:53 AM 23.0 °F 14.7 °F 15.1 °F 72% 29.76 in 10.0 mi South 6.9 mph - N/A   Clear
9:53 AM 27.0 °F 20.5 °F 17.1 °F 66% 29.73 in 10.0 mi Variable 5.8 mph - N/A   Clear
10:53 AM 34.0 °F 25.5 °F 21.0 °F 59% 29.68 in 10.0 mi SW 11.5 mph 17.3 mph N/A   Clear
11:53 AM 37.9 °F 32.7 °F 23.0 °F 55% 29.65 in 10.0 mi WSW 6.9 mph - N/A   Clear
12:53 PM 43.0 °F 38.2 °F 24.1 °F 47% 29.63 in 10.0 mi SSW 8.1 mph - N/A   Clear
1:53 PM 45.0 °F 40.1 °F 26.1 °F 48% 29.61 in 10.0 mi SW 9.2 mph - N/A   Clear
2:53 PM 46.9 °F - 26.1 °F 44% 29.59 in 10.0 mi WSW 8.1 mph - N/A   Clear
3:53 PM 48.9 °F - 26.1 °F 41% 29.58 in 10.0 mi WSW 8.1 mph - N/A   Clear
4:53 PM 48.0 °F - 27.0 °F 44% 29.59 in 10.0 mi WSW 4.6 mph - N/A   Mostly Cloudy
5:53 PM 48.0 °F - 27.0 °F 44% 29.59 in 10.0 mi SW 4.6 mph - N/A   Mostly Cloudy
6:53 PM 45.0 °F 43.5 °F 27.0 °F 49% 29.60 in 10.0 mi SW 3.5 mph - N/A   Overcast
7:53 PM 41.0 °F 39.0 °F 27.0 °F 57% 29.61 in 10.0 mi SSW 3.5 mph - N/A   Partly Cloudy
8:53 PM 37.0 °F 34.5 °F 27.0 °F 67% 29.61 in 10.0 mi SSW 3.5 mph - N/A   Clear
9:53 PM 32.0 °F - 26.1 °F 79% 29.61 in 10.0 mi Calm Calm - N/A   Clear
10:53 PM 28.9 °F 25.2 °F 24.1 °F 82% 29.62 in 10.0 mi WSW 3.5 mph - N/A   Clear
11:53 PM 28.0 °F - 24.1 °F 85% 29.61 in 10.0 mi Calm Calm - N/A   Clear
12:53 AM 27.0 °F 23.0 °F 24.1 °F 89% 29.59 in 10.0 mi SSW 3.5 mph - N/A   Mostly Cloudy